New Bedford, MA

4:34 AM EDT on May 24, 2018 (GMT -0400)
New Bedford Regional

Weather History for KEWB - June, 2014

Change the Weather History Date:

Tuesday, June 3, 2014

  Actual Average Record
Temperature  
Mean Temperature 60 °F -  
Max Temperature 72 °F 71 °F 85 °F (1989)
Min Temperature 48 °F 55 °F 43 °F (2015)
Degree Days  
Heating Degree Days 5    
Growing Degree Days 10 (Base 50)    
Moisture  
Dew Point 52 °F    
Average Humidity 70    
Maximum Humidity 97    
Minimum Humidity 50    
Precipitation  
Precipitation 0.00 in - - ()
Sea Level Pressure  
Sea Level Pressure 29.97 in    
Wind  
Wind Speed 5 mph (SE)    
Max Wind Speed 15 mph    
Max Gust Speed 21 mph    
Visibility 10 miles    
Events      
Averages and records for this station are not official NWS values.
T = Trace of Precipitation, MM = Missing Value Source: NWS Daily Summary

Daily Weather History Graph

Daily Weather History Graph

Search for Another Location

Airport or City:

Astronomy

Jun. 03, 2014 Rise Set
Actual Time 5:11 AM EDT 8:13 PM EDT
Civil Twilight 4:37 AM EDT 8:46 PM EDT
Nautical Twilight 3:54 AM EDT 9:29 PM EDT
Astronomical Twilight 3:04 AM EDT 10:20 PM EDT
Moon 10:34 AM EDT (6/3) No Moon Set
Length of Visible Light 16h 09m
Length of Day
15h 02m
Waxing Crescent, 30% of the Moon is Illuminated
Jun 3
Waxing Crescent
Jun 5
First Quarter
Jun 13
Full
Jun 19
Last Quarter
Jun 27
New

Hourly Weather History & Observations

Time (EDT) Temp. Dew Point Humidity Pressure Visibility Wind Dir Wind Speed Gust Speed Precip Events Conditions
12:53 AM 55.9 °F 50.0 °F 80% 30.04 in 10.0 mi South 4.6 mph - N/A   Clear
1:53 AM 53.1 °F 50.0 °F 89% 30.02 in 10.0 mi Calm Calm - N/A   Clear
2:53 AM 52.0 °F 50.0 °F 93% 30.01 in 10.0 mi Calm Calm - N/A   Clear
3:53 AM 52.0 °F 50.0 °F 93% 30.00 in 10.0 mi Calm Calm - N/A   Clear
4:53 AM 48.9 °F 48.0 °F 97% 29.99 in 10.0 mi Calm Calm - N/A   Clear
5:53 AM 50.0 °F 48.9 °F 96% 29.99 in 10.0 mi Calm Calm - N/A   Clear
6:53 AM 60.1 °F 55.0 °F 83% 30.00 in 10.0 mi SSE 4.6 mph - N/A   Clear
7:53 AM 63.0 °F 55.0 °F 75% 30.00 in 10.0 mi South 5.8 mph - N/A   Clear
8:53 AM 66.0 °F 54.0 °F 65% 30.00 in 10.0 mi ESE 9.2 mph - N/A   Clear
9:53 AM 66.9 °F 55.0 °F 66% 29.99 in 10.0 mi ESE 6.9 mph - N/A   Clear
10:53 AM 72.0 °F 57.0 °F 59% 29.98 in 10.0 mi South 6.9 mph - N/A   Clear
11:53 AM 72.0 °F 57.0 °F 59% 29.99 in 10.0 mi SE 10.4 mph - N/A   Clear
12:53 PM 70.0 °F 57.0 °F 63% 29.99 in 10.0 mi ESE 9.2 mph - N/A   Clear
1:53 PM 70.0 °F 57.0 °F 63% 29.98 in 10.0 mi SE 11.5 mph - N/A   Clear
2:53 PM 71.1 °F 57.9 °F 63% 29.96 in 10.0 mi SE 11.5 mph - N/A   Clear
3:53 PM 70.0 °F 54.0 °F 57% 29.94 in 10.0 mi SSE 15.0 mph - N/A   Clear
4:53 PM 69.1 °F 55.0 °F 61% 29.94 in 10.0 mi SE 12.7 mph 20.7 mph N/A   Clear
5:53 PM 66.9 °F 53.1 °F 61% 29.93 in 10.0 mi SE 11.5 mph - N/A   Clear
6:53 PM 66.0 °F 50.0 °F 56% 29.94 in 10.0 mi SE 11.5 mph - N/A   Clear
7:53 PM 63.0 °F 50.0 °F 63% 29.94 in 10.0 mi SE 8.1 mph - N/A   Clear
8:53 PM 62.1 °F 43.0 °F 50% 29.94 in 10.0 mi SSE 9.2 mph - N/A   Clear
9:53 PM 59.0 °F 42.1 °F 53% 29.93 in 10.0 mi SE 8.1 mph - N/A   Clear
10:53 PM 55.9 °F 44.1 °F 64% 29.92 in 10.0 mi Calm Calm - N/A   Clear
11:53 PM 54.0 °F 46.9 °F 77% 29.91 in 10.0 mi ENE 5.8 mph - N/A   Mostly Cloudy